Find Starlink 31723

NORAD ID: 59553 Int'l Des: 2024-074 Owner: SPXS Country: US Constellation: starlink operational
LEOCIRCULAR

リアルタイム位置

3D地球を読み込み中...

Starlink 31723について

説明を読み込み中...

次回通過

Passes for default location (London). Set your location on the main map for personalized predictions.

高度履歴

Loading altitude history...

軌道要素

1 59553U 24074V 26123.47731093 .00006897 00000-0 25989-3 0 9998
2 59553 43.0046 34.0864 0000889 277.6201 82.4550 15.27582733114396
Epoch: May 3, 2026 • Age: 18 hours

現在のステータス

高度 485.5 km
速度 7.62 km/s
衛星直下点 -13.71°S, 81.07°W
打ち上げ日 Apr 18, 2024
運用期間 2 years
タイプ internet

技術仕様

分類 Payload
質量 730.00 kg
乾燥質量 700.00 kg
総質量 730.00 kg
長さ 0.30 m
直径 4.10 m
スパン 29.00 m
形状 Box + pan
製造者 SPXS
バスタイプ Starlink V2M
フェーズステータス In Orbit
所有者/国 SPXS/US

Most Searched